Time,TemperatureF,DewpointF,PressureIn,WindDirection,WindDirectionDegrees,WindSpeedMPH,WindSpeedGustMPH,Humidity,HourlyPrecipIn,Conditions,Clouds,dailyrainin,SoftwareType,DateUTC
2013-05-22 16:08:00,62.1,54.0,29.80,ENE,69,1.0,4.0,76,0.00,,,0.00,weatherlink.com 1.10,2013-05-22 20:08:00,
2013-05-22 16:16:00,63.0,56.0,29.81,NE,44,4.0,7.0,77,0.00,,,0.00,weatherlink.com 1.10,2013-05-22 20:16:00,
2013-05-22 16:31:00,61.3,55.0,29.81,ENE,75,3.0,7.0,81,0.00,,,0.00,weatherlink.com 1.10,2013-05-22 20:31:00,
2013-05-22 17:01:00,61.3,57.0,29.81,ENE,65,1.0,5.0,87,0.00,,,0.00,weatherlink.com 1.10,2013-05-22 21:01:00,
2013-05-22 17:16:00,59.9,57.0,29.80,ENE,69,2.0,9.0,89,0.00,,,0.00,weatherlink.com 1.10,2013-05-22 21:16:00,
2013-05-22 17:31:00,59.1,56.0,29.81,NE,52,4.0,5.0,89,0.00,,,0.00,weatherlink.com 1.10,2013-05-22 21:31:00,
2013-05-22 17:46:00,58.5,56.0,29.81,ENE,63,2.0,4.0,92,0.00,,,0.00,weatherlink.com 1.10,2013-05-22 21:46:00,
2013-05-22 18:01:00,59.0,57.0,29.81,ENE,65,2.0,8.0,92,0.00,,,0.00,weatherlink.com 1.10,2013-05-22 22:01:00,
2013-05-22 18:16:00,58.5,55.0,29.82,East,98,3.0,9.0,87,0.00,,,0.00,weatherlink.com 1.10,2013-05-22 22:16:00,
2013-05-22 18:31:00,57.4,55.0,29.83,ENE,66,1.0,4.0,91,0.00,,,0.00,weatherlink.com 1.10,2013-05-22 22:31:00,
2013-05-22 18:46:00,56.1,54.0,29.83,ENE,78,0.0,1.0,94,0.00,,,0.00,weatherlink.com 1.10,2013-05-22 22:46:00,
2013-05-22 19:01:00,55.6,54.0,29.83,ENE,78,0.0,1.0,95,0.00,,,0.00,weatherlink.com 1.10,2013-05-22 23:01:00,
2013-05-22 19:16:00,55.0,54.0,29.83,ENE,59,1.0,5.0,95,0.00,,,0.00,weatherlink.com 1.10,2013-05-22 23:16:00,
2013-05-22 19:31:00,54.7,54.0,29.83,ENE,70,1.0,4.0,96,0.00,,,0.00,weatherlink.com 1.10,2013-05-22 23:31:00,
2013-05-22 19:46:00,54.0,53.0,29.83,ENE,78,1.0,5.0,96,0.00,,,0.00,weatherlink.com 1.10,2013-05-22 23:46:00,
2013-05-22 20:01:00,53.5,52.0,29.82,East,80,2.0,3.0,96,0.00,,,0.00,weatherlink.com 1.10,2013-05-23 00:01:00,
2013-05-22 20:16:00,52.8,52.0,29.82,ENE,71,2.0,4.0,96,0.00,,,0.00,weatherlink.com 1.10,2013-05-23 00:16:00,
2013-05-22 20:31:00,52.6,52.0,29.83,East,88,1.0,4.0,96,0.00,,,0.00,weatherlink.com 1.10,2013-05-23 00:31:00,
2013-05-22 20:46:00,52.5,51.0,29.82,ENE,72,2.0,3.0,96,0.00,,,0.00,weatherlink.com 1.10,2013-05-23 00:46:00,
2013-05-22 21:01:00,52.4,51.0,29.83,ENE,75,3.0,4.0,96,0.00,,,0.00,weatherlink.com 1.10,2013-05-23 01:01:00,
2013-05-22 21:16:00,52.2,51.0,29.84,ENE,77,2.0,5.0,96,0.00,,,0.00,weatherlink.com 1.10,2013-05-23 01:16:00,
2013-05-22 21:31:00,52.2,51.0,29.85,East,80,3.0,4.0,97,0.00,,,0.00,weatherlink.com 1.10,2013-05-23 01:31:00,
2013-05-22 21:46:00,52.2,51.0,29.86,ENE,74,0.0,3.0,97,0.00,,,0.00,weatherlink.com 1.10,2013-05-23 01:46:00,
2013-05-22 22:01:00,52.2,51.0,29.85,ENE,74,1.0,3.0,97,0.00,,,0.00,weatherlink.com 1.10,2013-05-23 02:01:00,
2013-05-22 22:16:00,52.3,52.0,29.86,ENE,74,0.0,2.0,97,0.00,,,0.00,weatherlink.com 1.10,2013-05-23 02:16:00,
2013-05-22 22:31:00,53.2,53.0,29.87,NE,55,0.0,4.0,98,0.00,,,0.00,weatherlink.com 1.10,2013-05-23 02:31:00,
2013-05-22 22:46:00,53.4,53.0,29.85,NE,53,1.0,2.0,98,0.00,,,0.00,weatherlink.com 1.10,2013-05-23 02:46:00,
2013-05-22 23:01:00,53.6,53.0,29.85,NE,53,1.0,2.0,98,0.00,,,0.00,weatherlink.com 1.10,2013-05-23 03:01:00,
2013-05-22 23:16:00,53.7,53.0,29.84,ENE,61,3.0,4.0,98,0.00,,,0.00,weatherlink.com 1.10,2013-05-23 03:16:00,
2013-05-22 23:31:00,53.7,53.0,29.84,ENE,71,4.0,4.0,98,0.00,,,0.00,weatherlink.com 1.10,2013-05-23 03:31:00,
2013-05-22 23:46:00,53.7,53.0,29.85,ENE,67,4.0,7.0,98,0.00,,,0.00,weatherlink.com 1.10,2013-05-23 03:46:00,